[[{"header":{"parameterUnit":"m.s-1","parameterCategory":1,"la1":30.2991,"la2":30.254,"lo1":-89.0895,"lo2":-89.0444,"dy":0.0017,"dx":0.0017,"nx":28,"ny":28,"refTime":"2025-02-27T03:00:00:Z","depth":0,"parameterNumber":2,"parameterNumberName":"U-component_of_WINDS"},"data":[0,0,0,0,0,0,0,0,0,0,0,0,0,0,0,0,0,0,0,0,0,0,0,0,0,0,0,0,0,0,0,0,0,0,0,0,0,0,0,0,0,0,0,0,0,0,0,0,0,0,0,0,0,0,0,0,0,0,0.2302,0.2304,0,0.2429,0.243,0.2432,0.2452,0.2451,0.245,0.2449,0.258,0.2584,0.2589,0,0,0,0,0,0,0,0,0,0,0,0,0,0.2077,0.2081,0.2302,0.2304,0.2305,0.2429,0.243,0.2432,0.2453,0.2451,0.245,0.2449,0.2578,0.2584,0.2589,0,0,0,0,0,0,0,0,0,0,0,0,0,0.2187,0.2083,0.2302,0.233,0.2334,0.2428,0.243,0.2433,0.2453,0.2451,0.2449,0.2448,0.2576,0.2583,0.259,0.2665,0,0,0.261,0.2613,0,0,0,0,0,0,0,0,0.218,0.2195,0.2325,0.2328,0.2333,0.2423,0.2399,0.251,0.2453,0.2408,0.2449,0.2447,0.2529,0.254,0.2567,0.2671,0.2676,0.2611,0.2615,0.2618,0.262,0,0,0,0,0,0,0,0.2173,0.2189,0.2352,0.2326,0.2332,0.2337,0.235,0.242,0.2476,0.2412,0.2413,0.2428,0.2531,0.256,0.257,0.2678,0.2611,0.2617,0.2621,0.2624,0.2848,0.285,0,0,0,0,0,0,0.216,0.2183,0.2348,0.2356,0.2251,0.2342,0.2357,0.2396,0.2475,0.2486,0.2429,0.2429,0.255,0.2562,0.2575,0.2667,0.2618,0.2624,0.2628,0.2846,0.2849,0.2851,0,0,0,0,0,0,0.2155,0.2175,0.2343,0.227,0.2292,0.2348,0.2391,0.2399,0.2429,0.2489,0.2499,0.2449,0.2549,0.2565,0.2642,0.2672,0.2627,0.2633,0.2844,0.2847,0.285,0.2853,0,0,0,0,0,0,0.2149,0.2173,0.2202,0.2271,0.2296,0.2408,0.2393,0.2403,0.244,0.244,0.251,0.252,0.2549,0.2632,0.2648,0.2681,0.2639,0.2842,0.2845,0.2849,0.2851,0.2856,0.286,0,0,0,0,0,0.2141,0.2199,0.2203,0.2223,0.2334,0.241,0.2424,0.2456,0.2443,0.2472,0.2511,0.2518,0.2666,0.2639,0.2658,0.2693,0.284,0.2844,0.2849,0.2848,0.2855,0.286,0,0,0,0,0,0,0.2133,0.2208,0.2215,0.2296,0.2346,0.2413,0.2452,0.2462,0.2517,0.2515,0.2552,0.2568,0.2642,0.2675,0.2644,0.2769,0.2752,0.276,0.2745,0.2752,0.2756,0.2747,0.2644,0,0,0,0,0,0.2141,0.2196,0.2259,0.2325,0.235,0.2396,0.2431,0.245,0.2504,0.2526,0.257,0.2622,0.2679,0.2717,0.2774,0.2855,0.287,0.2888,0.2893,0.2896,0.2904,0.2948,0.2956,0.2865,0.2865,0.2865,0,0,0.2158,0.2205,0.2239,0.2325,0.2366,0.2423,0.2414,0.2475,0.2517,0.2535,0.261,0.2644,0.2704,0.2782,0.2819,0.2812,0.2932,0.2902,0.2904,0.291,0.2953,0.2962,0.2969,0.2868,0.2867,0.2867,0,0,0.2218,0.2259,0.2319,0.236,0.2422,0.2452,0.2466,0.2531,0.2554,0.2629,0.2643,0.2694,0.2793,0.2835,0.287,0.2942,0.2951,0.296,0.2986,0.3028,0.3035,0.3042,0.3068,0.3077,0.2966,0.2967,0.2967,0,0.2231,0.2317,0.2348,0.2408,0.2445,0.2462,0.2522,0.2561,0.2638,0.2663,0.2654,0.2778,0.282,0.2908,0.2926,0.2953,0.297,0.2953,0.3032,0.3039,0.3045,0.307,0.308,0.2967,0.2967,0.2967,0.2967,0,0.233,0.239,0.243,0.2504,0.2545,0.2605,0.2644,0.2682,0.2698,0.2729,0.2804,0.2854,0.2921,0.2943,0.2959,0.3034,0.3027,0.3024,0.3008,0.3054,0.3078,0.3088,0.2968,0.2968,0.2968,0.2968,0,0,0.2392,0.248,0.2494,0.2527,0.2596,0.2642,0.2702,0.2766,0.2798,0.285,0.2901,0.2983,0.2981,0.302,0.304,0.3077,0.3131,0.307,0.3072,0.308,0.3215,0.3218,0.3228,0.3136,0.3138,0.314,0.321,0,0.246,0.2567,0.2596,0.2687,0.2741,0.2757,0.2809,0.2856,0.2886,0.2937,0.2969,0.3027,0.3019,0.3043,0.308,0.3117,0.3159,0.3112,0.3184,0.3186,0.317,0.3241,0.3244,0.3308,0.322,0.3222,0.3223,0,0.2555,0.2608,0.2704,0.2764,0.2788,0.2834,0.2895,0.2943,0.2996,0.3015,0.3057,0.3074,0.3136,0.3114,0.32,0.3167,0.3198,0.322,0.3224,0.3232,0.3208,0.3252,0.3329,0.3339,0.3238,0.3237,0.3236,0,0.259,0.2686,0.2755,0.2783,0.2855,0.2886,0.2918,0.2969,0.3006,0.3058,0.3082,0.3142,0.3174,0.3219,0.3251,0.3233,0.3334,0.3315,0.3351,0.335,0.3373,0.3371,0.3457,0.3391,0.3391,0.3391,0.3391,0,0.2664,0.2723,0.2772,0.2815,0.288,0.2911,0.2975,0.3007,0.3052,0.3101,0.3118,0.3163,0.3202,0.3252,0.3277,0.3344,0.3359,0.3375,0.3382,0.3374,0.3372,0.3396,0.3393,0.3394,0.3393,0.3393,0.3392,0,0.2716,0.2751,0.2828,0.2888,0.2905,0.295,0.3002,0.3044,0.3073,0.3135,0.3151,0.3197,0.3257,0.3292,0.3369,0.3385,0.3459,0.3463,0.3441,0.3444,0.3478,0.3474,0.3582,0.3597,0.3521,0.3522,0.3523,0,0.2761,0.2806,0.2871,0.2905,0.2936,0.299,0.3027,0.3059,0.3097,0.3159,0.3193,0.3254,0.3305,0.34,0.344,0.3498,0.3503,0.3537,0.3512,0.3503,0.3504,0.3501,0.3505,0.3542,0.3542,0.3543,0.3543,0,0.2838,0.2853,0.2905,0.2963,0.3006,0.3053,0.31,0.3127,0.3166,0.3207,0.3269,0.3308,0.3384,0.3444,0.3505,0.3537,0.3547,0.355,0.3562,0.3555,0.3541,0.3549,0.3453,0.3548,0.3548,0.3547,0.3547,0.3547,0.2888,0.2928,0.298,0.3037,0.3075,0.3118,0.316,0.3194,0.3245,0.331,0.3325,0.3389,0.344,0.3522,0.3555,0.3605,0.36,0.3616,0.362,0.3624,0.3625,0.3532,0.3616,0.3616,0.3616,0.3616,0.3616,0,0.2966,0.2999,0.3051,0.3116,0.316,0.3164,0.3216,0.3253,0.3309,0.3355,0.3404,0.3473,0.3531,0.3574,0.3633,0.3665,0.3671,0.3679,0.3678,0.3685,0.3627,0.3611,0.3673,0.3673,0.3673,0.3673,0.3673,0.3673,0.3012,0.3079,0.31,0.3186,0.3219,0.3282,0.3311,0.335,0.3387,0.3463,0.3511,0.3539,0.3583,0.3645,0.3698,0.3709,0.373,0.3738,0.375,0.3695,0.3689,0.3683,0.3668,0.3742,0.3742,0.3803,0.3804,0.3804]},{"header":{"parameterUnit":"m.s-1","parameterCategory":1,"la1":30.2991,"la2":30.254,"lo1":-89.0895,"lo2":-89.0444,"dy":0.0017,"dx":0.0017,"nx":28,"ny":28,"refTime":"2025-02-27T03:00:00:Z","depth":0,"parameterNumber":3,"parameterNumberName":"V-component_of_WINDS"},"data":[0,0,0,0,0,0,0,0,0,0,0,0,0,0,0,0,0,0,0,0,0,0,0,0,0,0,0,0,0,0,0,0,0,0,0,0,0,0,0,0,0,0,0,0,0,0,0,0,0,0,0,0,0,0,0,0,0,0,1.7467,1.7466,0,1.7416,1.7416,1.7415,1.7424,1.7425,1.7426,1.7427,1.737,1.7367,1.7365,0,0,0,0,0,0,0,0,0,0,0,0,0,1.7566,1.7564,1.7467,1.7466,1.7466,1.7416,1.7416,1.7415,1.7424,1.7425,1.7426,1.7427,1.737,1.7368,1.7365,0,0,0,0,0,0,0,0,0,0,0,0,0,1.7519,1.7563,1.7467,1.7464,1.7463,1.7417,1.7416,1.7415,1.7424,1.7425,1.7426,1.7428,1.7371,1.7368,1.7364,1.7315,0,0,1.7354,1.7352,0,0,0,0,0,0,0,0,1.7522,1.7516,1.7465,1.7464,1.7463,1.7428,1.743,1.7381,1.7423,1.7439,1.7427,1.7428,1.7388,1.7383,1.737,1.7313,1.731,1.7353,1.7351,1.735,1.7349,0,0,0,0,0,0,0,1.7525,1.7518,1.7447,1.7464,1.7463,1.7464,1.7459,1.742,1.7406,1.7437,1.7438,1.7432,1.7387,1.7374,1.7369,1.7309,1.7353,1.735,1.7348,1.7347,1.7207,1.7206,0,0,0,0,0,0,1.753,1.7521,1.7448,1.7445,1.7497,1.7461,1.7455,1.7438,1.7406,1.7403,1.7431,1.7433,1.7379,1.7373,1.7367,1.7306,1.735,1.7346,1.7344,1.7209,1.7207,1.7205,0,0,0,0,0,0,1.7532,1.7524,1.745,1.7483,1.7474,1.7458,1.7438,1.7436,1.7422,1.7402,1.7399,1.742,1.738,1.7372,1.7328,1.7304,1.7345,1.7341,1.721,1.7208,1.7206,1.7184,0,0,0,0,0,0,1.7535,1.7524,1.7507,1.7483,1.7472,1.7414,1.7437,1.7434,1.7417,1.7419,1.739,1.7387,1.738,1.7333,1.7324,1.73,1.7339,1.7212,1.7209,1.7207,1.7187,1.7181,1.7177,0,0,0,0,0,1.7539,1.7502,1.7506,1.7497,1.745,1.7412,1.7406,1.7401,1.7415,1.7396,1.7383,1.7388,1.7309,1.7329,1.7319,1.7293,1.7214,1.721,1.7207,1.7189,1.7182,1.7177,0,0,0,0,0,0,1.7521,1.7498,1.7503,1.7457,1.7437,1.7414,1.739,1.7394,1.7367,1.737,1.7363,1.7356,1.7311,1.7298,1.7321,1.7243,1.7263,1.7257,1.7253,1.7246,1.7241,1.7244,1.7336,0,0,0,0,0,1.7513,1.7486,1.7467,1.7428,1.7418,1.7406,1.7389,1.7387,1.7365,1.7356,1.7339,1.7316,1.7285,1.7266,1.7237,1.7186,1.7178,1.7163,1.7158,1.7154,1.7148,1.7118,1.711,1.7193,1.7193,1.7193,0,0,1.7494,1.7478,1.7461,1.7425,1.7409,1.7379,1.7398,1.7367,1.7344,1.735,1.7308,1.7295,1.7268,1.722,1.7198,1.7208,1.7124,1.7149,1.7146,1.7142,1.7114,1.7106,1.7099,1.7191,1.7191,1.7192,0,0,1.7443,1.743,1.7396,1.738,1.7356,1.7348,1.734,1.7316,1.7308,1.7266,1.727,1.7242,1.7191,1.7171,1.7155,1.7098,1.71,1.7088,1.706,1.7031,1.7025,1.7019,1.6996,1.6989,1.7083,1.7083,1.7083,0,1.7422,1.7379,1.7377,1.7345,1.7328,1.7335,1.7299,1.7283,1.725,1.7237,1.7249,1.7184,1.7167,1.7113,1.7099,1.7086,1.7075,1.709,1.7026,1.702,1.7015,1.6993,1.6985,1.7082,1.7082,1.7082,1.7082,0,1.7353,1.7324,1.7299,1.7269,1.7249,1.7215,1.7206,1.7186,1.7186,1.7176,1.7132,1.7112,1.7078,1.7066,1.7065,1.7012,1.7018,1.7029,1.7048,1.7005,1.6985,1.6977,1.708,1.708,1.7081,1.7081,0,0,1.7289,1.7259,1.725,1.7236,1.721,1.7186,1.7152,1.7121,1.7103,1.708,1.705,1.7006,1.7015,1.6996,1.6993,1.6968,1.6921,1.6981,1.698,1.6968,1.6859,1.685,1.6841,1.6924,1.6923,1.6921,1.6861,0,1.7235,1.7177,1.7174,1.7119,1.7091,1.7097,1.7067,1.7047,1.7037,1.701,1.6998,1.6967,1.6982,1.6971,1.6946,1.6932,1.6899,1.6937,1.6893,1.6892,1.6897,1.6831,1.6821,1.6765,1.6853,1.6852,1.6851,0,1.7164,1.714,1.7083,1.7061,1.7049,1.7022,1.6993,1.6968,1.6945,1.6939,1.6918,1.6919,1.6881,1.6905,1.6852,1.6878,1.686,1.685,1.6848,1.6841,1.6867,1.682,1.6747,1.6737,1.6838,1.6839,1.684,0,1.712,1.7074,1.7034,1.7022,1.6996,1.6976,1.6964,1.6943,1.6924,1.6898,1.6885,1.6855,1.6837,1.6813,1.6804,1.6822,1.6751,1.6774,1.6743,1.6743,1.6726,1.6727,1.6646,1.6718,1.6719,1.6719,1.6719,0,1.7058,1.7022,1.7014,1.6989,1.6949,1.6945,1.6905,1.6894,1.6875,1.6846,1.685,1.6822,1.6814,1.6784,1.6777,1.6733,1.6726,1.6719,1.6717,1.6717,1.6717,1.6703,1.6706,1.6716,1.6717,1.6717,1.6718,0,1.7001,1.6994,1.6951,1.693,1.6924,1.6895,1.6876,1.6851,1.6843,1.6806,1.6797,1.6783,1.6748,1.6738,1.6696,1.6692,1.6639,1.6642,1.6647,1.6647,1.6616,1.6618,1.6521,1.6508,1.6591,1.659,1.659,0,1.6961,1.6934,1.6911,1.6893,1.688,1.6851,1.6833,1.6828,1.6808,1.678,1.6757,1.6724,1.6697,1.6641,1.6625,1.6593,1.6594,1.6562,1.6588,1.6589,1.659,1.6591,1.6587,1.6556,1.6555,1.6555,1.6554,0,1.689,1.6888,1.6862,1.6834,1.6812,1.679,1.6768,1.6753,1.6745,1.6722,1.6688,1.6667,1.6625,1.6591,1.6558,1.6543,1.6546,1.6546,1.6537,1.6536,1.6539,1.6534,1.6631,1.6548,1.6549,1.6549,1.6549,1.655,1.6838,1.6814,1.6794,1.6765,1.6748,1.6728,1.6703,1.6692,1.6664,1.6631,1.663,1.6592,1.6568,1.6525,1.6509,1.6478,1.6486,1.6474,1.647,1.6466,1.6462,1.6546,1.6472,1.6472,1.6472,1.6472,1.6472,0,1.6765,1.6753,1.6726,1.6697,1.6673,1.6681,1.6657,1.6636,1.6604,1.6582,1.6556,1.6516,1.6483,1.6465,1.6432,1.641,1.641,1.6401,1.6401,1.6397,1.6458,1.6468,1.6401,1.6401,1.6401,1.6401,1.6401,1.6401,1.6725,1.6684,1.6679,1.663,1.6617,1.6581,1.6567,1.6548,1.6531,1.6486,1.6459,1.6449,1.6428,1.6393,1.6363,1.6358,1.6344,1.6334,1.633,1.6386,1.6393,1.64,1.6409,1.6331,1.6331,1.6271,1.6271,1.627]}]]